Accueil
METAR-TAF:

METAR-TAF

Aéroports :

Lifuka, Tonga

latitude: 19-46-36S, longitude: 174-20-28W, altitude: 9 m

Observation

Le bulletin a été fait il y a 32 minutes, à 22:00 UTC
Vent 10 kt de est/nord-est
Température 27°C
Humidité 74%
Pression 1019 hPa
Visibilité 10 km ou plus
Quelques nuages à une hauteur de 1800 ft
Nuages épars à une hauteur de 11000 ft

METAR: NFTL 232200Z 07010KT 9999 FEW018 SCT110 27/22 Q1019

Heure: 11:32 (22:32 UTC)


TAF: absent

Observations et prévisions météorologiques de plus de 4000 aéroports (messages METAR et TAF).

Les stations disponibles sont représentées par des disques jaunes et rouges sur la carte.

Passer la souris dessus pour voir le nom de la station.

Cliquer dessus pour voir les observations et prévisions météorologiques.

Pour changer de carte: cliquez sur les boutons verts avec une croix noire pour zoomer, sur le bouton vert avec un tiret pour effectuer un zoom arrière, ou sur les flèches vertes pour les cartes adjacentes.


METAR-TAF: